User: anonymous   Login
Location: Unspecified
(0.0000°N, 0.0000°E)
Time: 23:33:40
(UTC+00:00)
Language:

GONETS D1M 1 - Orbit

View from above orbital plane
View from above orbital plane
View from above satellite
View from above satellite

Ground track
Ground track

The orbit is defined by the following mean orbital elements,

1 28908U          26145.47641794 +.00000000 +00000-0 +16651-3 0 00002
2 28908  82.4677 322.1867 0007465 214.5029 159.7738 12.55600068    00
Epoch (UTC): 25 May 2026 11:26:02
Eccentricity: 0.0007465
inclination: 82.4677°
perigee height: 1435 km
apogee height: 1447 km
right ascension of ascending node: 322.1867°
argument of perigee: 214.5029°
revolutions per day: 12.55600068
mean anomaly at epoch: 159.7738°

The dashed part of the orbit path shows where the satellite is in the earth's shadow,  

DLR